Location: Northern Prairie Star Party
(53.2167°N, 112.5333°W)
Time: 04:40:51
(UTC-07:00)

Amateur Radio Satellites - All Passes

Search period start: 16 January 2018 04:10
Search period end: 17 January 2018 04:10
Location: Northern Prairie Star Party, 53.2167°N, 112.5333°W

Satellite Date Start Highest point End Downlink Frequencies (MHz)
Time Altitude Azimuth
ISS 16 Jan 04:11:08 04:14:12 37° 202° (SSW) 04:17:16 437.550
KKS-1 16 Jan 04:11:48 04:15:57 42° 66° (ENE) 04:20:08 437.445
nSIGHT-1 16 Jan 04:20:29 04:23:15 27° 207° (SSW) 04:26:01 .
AO-7 16 Jan 04:28:48 04:37:15 76° 109° (ESE) 04:45:37 .
BEESAT 16 Jan 04:38:37 04:41:23 15° 273° (W) 04:44:09 436.000
STARS 16 Jan 04:43:48 04:47:49 37° 65° (ENE) 04:51:51 437.465
DOVE 4 16 Jan 04:47:04 04:50:46 29° 95° (E) 04:54:33 437.250
O/OREOS (USA 219) 16 Jan 04:49:19 04:51:49 14° 328° (NNW) 04:54:18 437.305
Oscar 19 16 Jan 04:53:32 04:55:11 11° 316° (NW) 04:56:49 437.125/150
CUBESAT XI-V 16 Jan 05:06:29 05:09:39 18° 272° (W) 05:12:49 437.345
M-CUBED/EXP-1 PRIME 16 Jan 05:07:18 05:10:26 28° 101° (ESE) 05:13:24 437.505
FO-29 16 Jan 05:10:19 05:13:17 14° 44° (NE) 05:16:06 435.910
ITAMSAT 1 16 Jan 05:45:27 05:50:12 37° 298° (WNW) 05:54:57 435.822/435.867
XW-2F 16 Jan 05:46:27 05:49:01 17° 90° (E) 05:51:34 145.980 - 146.000
KKS-1 16 Jan 05:48:48 05:52:39 29° 265° (W) 05:56:31 437.445
ISS 16 Jan 05:48:54 05:50:00 11° 220° (SW) 05:51:06 437.550
STRAND 1 16 Jan 05:49:41 05:54:07 31° 60° (ENE) 05:58:35 437.568
XW-2D 16 Jan 05:51:01 05:53:58 21° 92° (E) 05:56:53 145.860 - 145.880
KAITUO 1B 16 Jan 05:54:32 05:56:58 16° 90° (E) 05:59:22 145.475/437.950
XW-2B 16 Jan 06:08:07 06:11:30 29° 95° (E) 06:14:49 145.730 - 145.750
NUDT-PHONESAT 16 Jan 06:15:15 06:18:20 24° 93° (E) 06:21:24 437.300
STARS 16 Jan 06:20:18 06:24:12 32° 264° (W) 06:28:09 437.465
AO-7 16 Jan 06:22:01 06:29:29 38° 312° (NW) 06:36:55 .
HO-68 16 Jan 06:22:57 06:28:35 24° 89° (E) 06:34:12 435.675
DOVE 4 16 Jan 06:24:40 06:28:34 38° 293° (WNW) 06:32:34 437.250
LilacSat-2 16 Jan 06:28:34 06:32:19 52° 100° (E) 06:36:01 437.200
XW-2C 16 Jan 06:37:52 06:41:38 61° 102° (ESE) 06:45:21 145.795 - 145.815
CUTE-I 16 Jan 06:39:10 06:44:20 48° 99° (E) 06:49:27 437.470
M-CUBED/EXP-1 PRIME 16 Jan 06:41:41 06:44:52 29° 303° (WNW) 06:47:51 437.505
SEEDS 16 Jan 06:44:02 06:46:39 16° 88° (E) 06:49:13 437.485
CUTE 1.7 + AOD 2 16 Jan 06:45:09 06:48:40 25° 92° (E) 06:52:09 437.475
FO-29 16 Jan 06:50:41 06:57:13 49° 65° (ENE) 07:03:01 435.910
SO-50 16 Jan 07:17:43 07:21:51 37° 122° (ESE) 07:26:04 436.795
XW-2F 16 Jan 07:19:45 07:23:26 52° 289° (WNW) 07:27:05 145.980 - 146.000
XW-2D 16 Jan 07:24:43 07:28:20 43° 291° (WNW) 07:31:54 145.860 - 145.880
KAITUO 1B 16 Jan 07:27:37 07:31:16 55° 289° (WNW) 07:34:53 145.475/437.950
STRAND 1 16 Jan 07:28:11 07:33:08 50° 260° (W) 07:38:07 437.568
TIGRISAT 16 Jan 07:35:05 07:37:30 15° 52° (NE) 07:39:57 435.000
CUBEBUG 2 16 Jan 07:36:25 07:41:03 52° 99° (E) 07:45:42 437.445
XW-2B 16 Jan 07:42:17 07:45:40 31° 294° (WNW) 07:49:00 145.730 - 145.750
Oscar 11 16 Jan 07:44:18 07:46:19 13° 85° (E) 07:48:18 .
UNISAT 6 16 Jan 07:47:58 07:51:06 19° 56° (ENE) 07:54:18 437.425
NUDT-PHONESAT 16 Jan 07:48:51 07:52:16 35° 293° (WNW) 07:55:38 437.300
UWE-3 16 Jan 07:53:14 07:57:45 45° 98° (E) 08:02:15 435.000/436.395/437.385
XW-2A 16 Jan 07:59:39 08:02:40 29° 96° (E) 08:05:39 145.665 - 145.685
LilacSat-2 16 Jan 08:03:30 08:06:17 19° 299° (WNW) 08:09:02 437.200
HO-68 16 Jan 08:10:01 08:17:14 87° 290° (WNW) 08:24:25 435.675
XW-2C 16 Jan 08:12:53 08:15:25 17° 301° (WNW) 08:17:55 145.795 - 145.815
AO-7 16 Jan 08:15:20 08:20:01 17° 337° (NNW) 08:24:42 .
AAUSAT CUBESAT 2 16 Jan 08:16:51 08:20:54 54° 100° (E) 08:24:55 437.432
SEEDS 16 Jan 08:18:38 08:22:49 70° 287° (WNW) 08:26:57 437.485
CUTE-I 16 Jan 08:19:30 08:24:16 35° 299° (WNW) 08:29:02 437.470
CUTE 1.7 + AOD 2 16 Jan 08:20:39 08:24:42 44° 292° (WNW) 08:28:42 437.475
ZACube-1 16 Jan 08:29:09 08:33:42 54° 100° (E) 08:38:10 437.345
FO-29 16 Jan 08:35:55 08:42:25 42° 263° (W) 08:48:14 435.910
AO-73 16 Jan 08:39:19 08:43:53 60° 101° (E) 08:48:22 145.935
RS-15 16 Jan 08:47:10 08:58:10 41° 110° (ESE) 09:08:58 29.354- 29.394
SO-50 16 Jan 08:57:52 09:02:15 48° 324° (NW) 09:06:44 436.795
YUBILEINY 16 Jan 09:04:17 09:11:35 28° 54° (NE) 09:18:47 435.215
TIGRISAT 16 Jan 09:09:03 09:13:27 78° 74° (ENE) 09:18:00 435.000
CUBEBUG 2 16 Jan 09:13:27 09:17:25 27° 298° (WNW) 09:21:25 437.445
Oscar 11 16 Jan 09:18:44 09:23:07 89° 100° (E) 09:27:27 .
UNISAT 6 16 Jan 09:22:54 09:27:18 74° 257° (WSW) 09:31:52 437.425
UWE-3 16 Jan 09:29:59 09:34:03 30° 297° (WNW) 09:38:08 435.000/436.395/437.385
XW-2A 16 Jan 09:32:26 09:35:18 25° 295° (WNW) 09:38:08 145.665 - 145.685
PRISM 16 Jan 09:37:21 09:41:14 45° 68° (ENE) 09:45:08 437.425
NANOSAT C BR1 16 Jan 09:38:40 09:38:54 10° 50° (NE) 09:39:09 145.865
AIST 2D 16 Jan 09:39:32 09:42:11 20° 63° (ENE) 09:44:50 435.315
DELFI C3 16 Jan 09:43:54 09:47:33 36° 97° (E) 09:51:11 145.870
QB50P2 16 Jan 09:44:56 09:47:06 14° 53° (NE) 09:49:16 145.880/145.840
O/OREOS (USA 219) 16 Jan 09:52:22 09:56:13 27° 45° (NE) 10:00:02 437.305
AAUSAT CUBESAT 2 16 Jan 09:52:55 09:56:02 21° 300° (WNW) 09:59:09 437.432
Max Valier Satellite 16 Jan 09:55:05 09:58:29 32° 96° (E) 10:01:50 145.860
SEEDS 16 Jan 09:56:08 09:57:44 12° 307° (NW) 09:59:19 437.485
HO-68 16 Jan 09:58:27 10:04:11 27° 312° (NW) 10:09:54 435.675
ZACube-1 16 Jan 10:05:55 10:09:41 25° 299° (WNW) 10:13:26 437.345
AO-7 16 Jan 10:06:29 10:09:30 12° 5° (N) 10:12:30 .
PCSat 16 Jan 10:09:02 10:11:06 12° 102° (ESE) 10:13:10 145.827
AO-73 16 Jan 10:16:08 10:19:46 23° 300° (WNW) 10:23:22 145.935
EO-79 16 Jan 10:16:26 10:19:41 22° 60° (ENE) 10:22:59 145.935-145.965
DUCHIFAT 1 16 Jan 10:22:12 10:25:16 20° 58° (ENE) 10:28:22 145.980
EO-88 16 Jan 10:26:29 10:30:01 46° 99° (E) 10:33:31 145.990 - 145.960
SO-50 16 Jan 10:40:06 10:43:42 22° 348° (NNW) 10:47:21 436.795
ESTCUBE 1 16 Jan 10:45:58 10:48:06 13° 85° (E) 10:50:12 437.505/2401.250
TIGRISAT 16 Jan 10:48:01 10:50:45 16° 273° (W) 10:53:30 435.000
POLYITAN 1 16 Jan 10:49:04 10:53:02 40° 66° (ENE) 10:57:02 437.675
Oscar 11 16 Jan 10:56:03 10:58:40 16° 305° (NW) 11:01:16 .
RS-15 16 Jan 10:57:21 11:09:46 84° 316° (NW) 11:21:52 29.354- 29.394
YUBILEINY 16 Jan 11:00:56 11:09:45 88° 80° (E) 11:18:29 435.215
UNISAT 6 16 Jan 11:03:36 11:04:53 11° 277° (W) 11:06:11 437.425
NANOSAT C BR1 16 Jan 11:09:35 11:13:41 54° 70° (ENE) 11:17:51 145.865
AIST 2D 16 Jan 11:11:44 11:15:07 42° 261° (W) 11:18:30 435.315
PRISM 16 Jan 11:13:26 11:16:43 23° 267° (W) 11:20:01 437.425
QB50P2 16 Jan 11:17:58 11:22:12 80° 72° (ENE) 11:26:29 145.880/145.840
Oscar 19 16 Jan 11:18:37 11:22:11 19° 52° (NE) 11:25:46 437.125/150
DELFI C3 16 Jan 11:18:51 11:22:12 27° 296° (WNW) 11:25:31 145.870
Max Valier Satellite 16 Jan 11:29:01 11:32:13 28° 295° (WNW) 11:35:24 145.860
O/OREOS (USA 219) 16 Jan 11:31:32 11:35:56 57° 246° (WSW) 11:40:20 437.305
AO-91 16 Jan 11:34:17 11:35:53 13° 56° (ENE) 11:37:29 145.960
BEESAT 3 16 Jan 11:39:30 11:43:16 41° 125° (SE) 11:47:02 437.485
BUGSAT 1 16 Jan 11:43:32 11:47:05 29° 63° (ENE) 11:50:41 437.445
SPROUT 16 Jan 11:46:04 11:48:05 13° 86° (E) 11:50:06 437.525
PCSat 16 Jan 11:48:06 11:53:26 61° 123° (ESE) 11:58:48 145.827
HO-68 16 Jan 11:48:54 11:49:37 10° 337° (NNW) 11:50:20 435.675
EO-79 16 Jan 11:50:59 11:55:08 56° 259° (W) 11:59:20 145.935-145.965
AO-7 16 Jan 11:53:30 11:59:12 21° 32° (NNE) 12:04:55 .
DUCHIFAT 1 16 Jan 11:56:22 12:00:32 63° 258° (WSW) 12:04:46 145.980
EO-88 16 Jan 12:00:41 12:03:22 20° 299° (WNW) 12:06:03 145.990 - 145.960
Gurwin Techsat 1B 16 Jan 12:01:16 12:05:48 29° 59° (ENE) 12:10:21 435.225
LO-87 16 Jan 12:02:22 12:06:01 81° 106° (ESE) 12:09:39 145.935 - 145.965
BEESAT 2 16 Jan 12:15:00 12:18:31 29° 120° (ESE) 12:22:03 435.950
ESTCUBE 1 16 Jan 12:21:05 12:25:37 86° 106° (ESE) 12:30:07 437.505/2401.250
SO-50 16 Jan 12:21:58 12:25:35 22° 12° (NNE) 12:29:16 436.795
POLYITAN 1 16 Jan 12:25:15 12:28:56 28° 266° (W) 12:32:38 437.675
VELOX 1 16 Jan 12:43:49 12:47:29 25° 93° (E) 12:51:08 145.980
NANOSAT C BR1 16 Jan 12:46:32 12:49:43 21° 269° (W) 12:52:56 145.865
Oscar 19 16 Jan 12:55:37 13:00:50 85° 73° (ENE) 13:06:05 437.125/150
QB50P2 16 Jan 12:56:11 12:58:33 14° 273° (W) 13:00:56 145.880/145.840
YUBILEINY 16 Jan 12:58:40 13:05:30 27° 283° (WNW) 13:12:19 435.215
AO-91 16 Jan 13:08:33 13:11:54 68° 257° (WSW) 13:15:21 145.960
RS-15 16 Jan 13:12:02 13:23:55 51° 346° (NNW) 13:35:22 29.354- 29.394
BEESAT 3 16 Jan 13:17:04 13:20:50 38° 325° (NW) 13:24:36 437.485
DX 1 16 Jan 13:17:21 13:19:22 13° 87° (E) 13:21:23 434.975-435.025
BUGSAT 1 16 Jan 13:18:34 13:22:20 37° 263° (W) 13:26:12 437.445
SPROUT 16 Jan 13:20:18 13:24:37 90° 336° (NNW) 13:28:56 437.525
PCSat 16 Jan 13:32:04 13:37:08 38° 325° (NW) 13:42:14 145.827
LO-87 16 Jan 13:37:08 13:38:53 13° 303° (WNW) 13:40:39 145.935 - 145.965
Gurwin Techsat 1B 16 Jan 13:40:15 13:45:29 58° 259° (WSW) 13:50:46 435.225
AO-7 16 Jan 13:42:16 13:50:16 53° 56° (NE) 13:58:18 .
ITAMSAT 1 16 Jan 13:52:03 13:56:10 25° 56° (NE) 14:00:19 435.822/435.867
BEESAT 2 16 Jan 13:52:06 13:56:04 51° 321° (NW) 14:00:03 435.950
50 SAT 16 Jan 13:57:22 13:59:53 22° 95° (E) 14:02:23 437.505
ESTCUBE 1 16 Jan 13:58:56 14:01:51 17° 305° (NW) 14:04:45 437.505/2401.250
SO-50 16 Jan 14:02:33 14:07:04 47° 36° (NE) 14:11:38 436.795
AO-85 16 Jan 14:04:13 14:08:08 50° 126° (SE) 14:12:23 145.980
VELOX 1 16 Jan 14:19:56 14:24:09 47° 293° (WNW) 14:28:21 145.980
M-CUBED/EXP-1 PRIME 16 Jan 14:24:30 14:27:39 20° 53° (NE) 14:30:41 437.505
DOVE 4 16 Jan 14:25:06 14:25:42 10° 51° (NE) 14:26:18 437.250
Oscar 19 16 Jan 14:37:21 14:40:51 18° 273° (W) 14:44:21 437.125/150
UKube-1 16 Jan 14:50:52 14:55:08 57° 102° (ESE) 14:59:22 .
DX 1 16 Jan 14:51:50 14:56:12 89° 97° (E) 15:00:34 434.975-435.025
BEESAT 16 Jan 14:53:04 14:55:48 15° 87° (E) 14:58:29 436.000
BEESAT 3 16 Jan 14:56:37 14:59:20 17° 348° (NNW) 15:02:02 437.485
SPROUT 16 Jan 14:57:23 14:59:55 15° 305° (NW) 15:02:26 437.525
HO-68 16 Jan 15:15:42 15:18:43 13° 30° (NNE) 15:21:44 435.675
PCSat 16 Jan 15:18:03 15:22:01 20° 350° (N) 15:26:00 145.827
CUBESAT XI-V 16 Jan 15:18:58 15:20:55 12° 84° (E) 15:22:52 437.345
Gurwin Techsat 1B 16 Jan 15:25:54 15:26:36 10° 279° (W) 15:27:19 435.225
RS-15 16 Jan 15:27:18 15:39:08 54° 19° (NNE) 15:50:22 29.354- 29.394
MOZHAYETS 4 16 Jan 15:27:36 15:32:05 45° 98° (E) 15:36:32
50 SAT 16 Jan 15:28:54 15:31:39 28° 293° (WNW) 15:34:22 437.505
ITAMSAT 1 16 Jan 15:30:04 15:35:13 70° 256° (WSW) 15:40:25 435.822/435.867
BEESAT 2 16 Jan 15:31:37 15:34:37 19° 343° (NNW) 15:37:37 435.950
AO-7 16 Jan 15:35:02 15:43:07 52° 259° (W) 15:51:17 .
SO-50 16 Jan 15:43:07 15:47:32 42° 236° (SW) 15:52:00 436.795
AO-85 16 Jan 15:44:49 15:48:44 37° 329° (NNW) 15:52:56 145.980
ITUPSAT 1 16 Jan 15:46:23 15:50:56 39° 98° (E) 15:55:26 437.325
XW-2C 16 Jan 15:53:40 15:54:44 11° 54° (NE) 15:55:49 145.795 - 145.815
M-CUBED/EXP-1 PRIME 16 Jan 15:57:19 16:01:42 70° 251° (WSW) 16:05:49 437.505
DOVE 4 16 Jan 15:58:21 16:02:36 59° 71° (ENE) 16:06:44 437.250
UKube-1 16 Jan 16:27:29 16:30:50 22° 301° (WNW) 16:34:10 .
CUTE-I 16 Jan 16:28:31 16:32:59 28° 58° (ENE) 16:37:26 437.470
DX 1 16 Jan 16:29:10 16:31:49 16° 306° (NW) 16:34:27 434.975-435.025
BEESAT 16 Jan 16:29:26 16:34:16 88° 98° (E) 16:39:05 436.000
XW-2F 16 Jan 16:32:44 16:35:42 22° 62° (ENE) 16:38:41 145.980 - 146.000
BEESAT 3 16 Jan 16:35:32 16:38:13 17° 12° (NNE) 16:40:54 437.485
XW-2D 16 Jan 16:37:43 16:40:57 26° 64° (ENE) 16:44:11 145.860 - 145.880
KAITUO 1B 16 Jan 16:39:57 16:42:47 20° 62° (ENE) 16:45:37 145.475/437.950
CUBESAT XI-V 16 Jan 16:54:25 16:59:06 79° 105° (ESE) 17:03:43 437.345
XW-2B 16 Jan 16:54:45 16:58:17 36° 67° (ENE) 17:01:49 145.730 - 145.750
HO-68 16 Jan 16:58:09 17:04:32 37° 54° (NE) 17:10:57 435.675
NUDT-PHONESAT 16 Jan 16:59:38 17:02:53 29° 65° (ENE) 17:06:09 437.300
PCSat 16 Jan 17:03:07 17:07:18 22° 16° (NNE) 17:11:29 145.827
MOZHAYETS 4 16 Jan 17:05:02 17:09:06 30° 298° (WNW) 17:13:08
CUBEBUG 2 16 Jan 17:06:06 17:08:40 15° 54° (NE) 17:11:17 437.445
BEESAT 2 16 Jan 17:11:02 17:13:42 17° 7° (N) 17:16:20 435.950
ITAMSAT 1 16 Jan 17:13:34 17:15:40 12° 276° (W) 17:17:47 435.822/435.867
LilacSat-2 16 Jan 17:15:46 17:19:36 64° 72° (ENE) 17:23:27 437.200
UWE-3 16 Jan 17:22:17 17:24:31 14° 52° (NE) 17:26:46 435.000/436.395/437.385
ITUPSAT 1 16 Jan 17:24:20 17:28:43 36° 297° (WNW) 17:33:07 437.325
XW-2C 16 Jan 17:24:23 17:28:13 73° 73° (ENE) 17:32:04 145.795 - 145.815
AO-85 16 Jan 17:27:03 17:30:19 20° 354° (N) 17:33:47 145.980
KKS-1 16 Jan 17:32:35 17:36:40 34° 97° (E) 17:40:43 437.445
AO-7 16 Jan 17:35:00 17:38:04 12° 282° (WNW) 17:41:10 .
M-CUBED/EXP-1 PRIME 16 Jan 17:35:50 17:36:41 10° 267° (W) 17:37:32 437.505
DOVE 4 16 Jan 17:37:37 17:40:40 19° 269° (W) 17:43:40 437.250
AAUSAT CUBESAT 2 16 Jan 17:39:44 17:41:39 13° 54° (NE) 17:43:35 437.432
RS-15 16 Jan 17:40:49 17:52:49 85° 230° (SW) 18:04:06 29.354- 29.394
SEEDS 16 Jan 17:41:04 17:44:32 25° 62° (ENE) 17:47:59 437.485
CUTE 1.7 + AOD 2 16 Jan 17:43:14 17:47:12 38° 67° (ENE) 17:51:10 437.475
ZACube-1 16 Jan 17:56:36 17:59:15 16° 54° (NE) 18:01:56 437.345
STARS 16 Jan 18:02:44 18:06:36 29° 95° (E) 18:10:27 437.465
XW-2F 16 Jan 18:05:54 18:09:34 45° 261° (W) 18:13:16 145.980 - 146.000
AO-73 16 Jan 18:06:13 18:09:04 17° 55° (NE) 18:11:57 145.935
CUTE-I 16 Jan 18:07:27 18:12:43 62° 258° (WSW) 18:18:00 437.470
BEESAT 16 Jan 18:08:12 18:11:27 18° 306° (NW) 18:14:41 436.000
XW-2D 16 Jan 18:11:26 18:15:00 36° 263° (W) 18:18:35 145.860 - 145.880
KAITUO 1B 16 Jan 18:12:49 18:16:29 48° 260° (W) 18:20:10 145.475/437.950
BEESAT 3 16 Jan 18:12:59 18:16:43 38° 34° (NE) 18:20:25 437.485
XW-2B 16 Jan 18:29:16 18:32:32 26° 266° (W) 18:35:48 145.730 - 145.750
CUBESAT XI-V 16 Jan 18:32:42 18:35:56 19° 304° (NW) 18:39:09 437.345
NUDT-PHONESAT 16 Jan 18:33:17 18:36:40 31° 264° (W) 18:40:04 437.300
XW-2A 16 Jan 18:36:10 18:39:08 28° 66° (ENE) 18:42:07 145.665 - 145.685
CUBEBUG 2 16 Jan 18:40:13 18:44:34 84° 76° (ENE) 18:49:08 437.445
Oscar 11 16 Jan 18:44:17 18:47:41 22° 60° (ENE) 18:51:05 .
HO-68 16 Jan 18:44:50 18:51:58 66° 256° (WSW) 18:59:07 435.675
PCSat 16 Jan 18:46:42 18:51:58 48° 40° (NE) 18:57:14 145.827
BEESAT 2 16 Jan 18:48:52 18:52:31 31° 30° (NNE) 18:56:08 435.950
LilacSat-2 16 Jan 18:51:54 18:54:16 16° 271° (W) 18:56:39 437.200
NO-84 16 Jan 18:54:01 18:55:13 12° 136° (SE) 18:56:24 435.350 FM
UWE-3 16 Jan 18:55:46 19:00:10 72° 73° (ENE) 19:04:43 435.000/436.395/437.385
XW-2C 16 Jan 19:00:52 19:02:52 14° 272° (W) 19:04:52 145.795 - 145.815
AO-85 16 Jan 19:08:25 19:12:10 24° 18° (NNE) 19:16:09 145.980
KKS-1 16 Jan 19:09:10 19:13:14 36° 296° (WNW) 19:17:18 437.445
AAUSAT CUBESAT 2 16 Jan 19:12:17 19:16:26 79° 75° (ENE) 19:20:35 437.432
SEEDS 16 Jan 19:15:54 19:19:59 47° 261° (W) 19:24:05 437.485
CUTE 1.7 + AOD 2 16 Jan 19:19:21 19:23:06 29° 266° (W) 19:26:54 437.475
ZACube-1 16 Jan 19:30:23 19:34:50 85° 75° (ENE) 19:39:25 437.345
STRAND 1 16 Jan 19:32:06 19:36:49 35° 96° (E) 19:41:30 437.568
STARS 16 Jan 19:38:54 19:43:03 41° 294° (WNW) 19:47:12 437.465
FO-29 16 Jan 19:38:58 19:42:45 19° 87° (E) 19:46:25 435.910
AO-73 16 Jan 19:40:14 19:44:40 88° 249° (WSW) 19:49:15 145.935
BEESAT 3 16 Jan 19:50:35 19:54:18 40° 235° (SW) 19:57:57 437.485
CUTE-I 16 Jan 19:52:23 19:53:53 11° 278° (W) 19:55:22 437.470
RS-15 16 Jan 19:54:04 20:03:41 32° 256° (WSW) 20:12:55 29.354- 29.394
XW-2A 16 Jan 20:08:49 20:11:47 27° 265° (W) 20:14:47 145.665 - 145.685
Oscar 11 16 Jan 20:19:12 20:23:30 57° 259° (W) 20:27:50 .
CUBEBUG 2 16 Jan 20:19:25 20:21:52 15° 275° (W) 20:24:22 437.445
BEESAT 2 16 Jan 20:26:31 20:30:30 59° 232° (SW) 20:34:25 435.950
NO-84 16 Jan 20:29:02 20:31:52 57° 155° (SSE) 20:34:40 435.350 FM
PCSat 16 Jan 20:30:15 20:35:24 44° 242° (WSW) 20:40:30 145.827
UWE-3 16 Jan 20:34:13 20:37:10 17° 273° (W) 20:40:11 435.000/436.395/437.385
DELFI C3 16 Jan 20:34:30 20:38:16 48° 70° (ENE) 20:42:04 145.870
HO-68 16 Jan 20:37:06 20:41:08 16° 278° (W) 20:45:11 435.675
Max Valier Satellite 16 Jan 20:39:15 20:42:43 36° 67° (ENE) 20:46:12 145.860
AO-85 16 Jan 20:48:46 20:53:27 59° 40° (NE) 20:58:29 145.980
AAUSAT CUBESAT 2 16 Jan 20:50:12 20:52:26 14° 273° (W) 20:54:39 437.432
TIGRISAT 16 Jan 20:55:50 20:57:43 12° 84° (E) 20:59:35 435.000
UNISAT 6 16 Jan 21:08:52 21:11:58 17° 88° (E) 21:15:04 437.425
ZACube-1 16 Jan 21:09:15 21:11:47 15° 274° (W) 21:14:20 437.345
EO-88 16 Jan 21:09:20 21:12:54 51° 71° (ENE) 21:16:29 145.990 - 145.960
STRAND 1 16 Jan 21:11:15 21:16:06 43° 296° (WNW) 21:20:56 437.568
LO-87 16 Jan 21:13:20 21:14:23 11° 55° (NE) 21:15:26 145.935 - 145.965
AO-73 16 Jan 21:19:24 21:21:37 14° 275° (W) 21:23:53 145.935
FO-29 16 Jan 21:23:13 21:28:38 75° 289° (WNW) 21:33:47 435.910
ESTCUBE 1 16 Jan 21:50:33 21:54:19 26° 61° (ENE) 21:58:04 437.505/2401.250
NO-84 16 Jan 22:06:13 22:09:02 58° 355° (N) 22:11:51 435.350 FM
DELFI C3 16 Jan 22:10:18 22:13:15 20° 268° (W) 22:16:14 145.870
Max Valier Satellite 16 Jan 22:13:31 22:16:38 24° 267° (W) 22:19:45 145.860
YUBILEINY 16 Jan 22:15:53 22:22:12 23° 74° (ENE) 22:28:30 435.215
AO-85 16 Jan 22:29:23 22:33:46 34° 239° (WSW) 22:38:22 145.980
TIGRISAT 16 Jan 22:30:29 22:35:12 75° 103° (ESE) 22:39:55 435.000
nSIGHT-1 16 Jan 22:37:34 22:39:07 13° 142° (SE) 22:40:40 .
LO-87 16 Jan 22:43:35 22:47:09 83° 76° (ENE) 22:50:46 145.935 - 145.965
EO-88 16 Jan 22:44:20 22:46:49 17° 270° (W) 22:49:18 145.990 - 145.960
SPROUT 16 Jan 22:44:30 22:47:49 22° 60° (ENE) 22:51:09 437.525
UNISAT 6 16 Jan 22:44:32 22:49:14 79° 287° (WNW) 22:53:56 437.425
PRISM 16 Jan 22:47:21 22:50:57 30° 96° (E) 22:54:34 437.425
STRAND 1 16 Jan 22:53:11 22:54:05 10° 317° (NW) 22:54:59 437.568
FO-29 16 Jan 23:09:35 23:12:51 16° 312° (NW) 23:16:01 435.910
ESTCUBE 1 16 Jan 23:26:28 23:30:53 51° 260° (W) 23:35:19 437.505/2401.250
EO-79 16 Jan 23:30:03 23:32:46 16° 88° (E) 23:35:28 145.935-145.965
DUCHIFAT 1 16 Jan 23:35:05 23:37:24 14° 87° (E) 23:39:41 145.980
NO-84 16 Jan 23:43:29 23:46:19 82° 16° (NNE) 23:49:13 435.350 FM
VELOX 1 16 Jan 23:46:29 23:50:42 48° 68° (ENE) 23:54:56 145.980
POLYITAN 1 17 Jan 00:03:00 00:06:51 31° 95° (E) 00:10:42 437.675
AIST 2D 17 Jan 00:03:04 00:06:35 84° 285° (WNW) 00:10:03 435.315
ISS 17 Jan 00:06:21 00:09:20 33° 156° (SSE) 00:12:21 437.550
TIGRISAT 17 Jan 00:08:00 00:11:25 20° 303° (WNW) 00:14:49 435.000
YUBILEINY 17 Jan 00:08:51 00:17:41 81° 97° (E) 00:26:30 435.215
nSIGHT-1 17 Jan 00:11:40 00:14:41 41° 161° (SSE) 00:17:43 .
UKube-1 17 Jan 00:16:46 00:19:39 18° 56° (NE) 00:22:34 .
DX 1 17 Jan 00:17:54 00:21:28 26° 60° (ENE) 00:25:04 434.975-435.025
SPROUT 17 Jan 00:19:14 00:23:24 55° 260° (W) 00:27:37 437.525
LO-87 17 Jan 00:20:21 00:21:06 11° 274° (W) 00:21:51 145.935 - 145.965
UNISAT 6 17 Jan 00:22:31 00:25:14 16° 307° (NW) 00:27:58 437.425
PRISM 17 Jan 00:22:33 00:26:16 35° 295° (WNW) 00:29:58 437.425
NANOSAT C BR1 17 Jan 00:22:58 00:27:03 42° 98° (E) 00:31:07 145.865
50 SAT 17 Jan 00:27:47 00:30:06 20° 63° (ENE) 00:32:25 437.505
QB50P2 17 Jan 00:32:03 00:36:20 63° 102° (ESE) 00:40:36 145.880/145.840
AO-91 17 Jan 00:51:34 00:53:59 15° 90° (E) 00:56:31 145.960
BUGSAT 1 17 Jan 00:53:53 00:57:10 21° 92° (E) 01:00:26 437.445
MOZHAYETS 4 17 Jan 01:00:23 01:03:15 16° 54° (NE) 01:06:07
Oscar 19 17 Jan 01:01:38 01:05:18 19° 88° (E) 01:08:58 437.125/150
EO-79 17 Jan 01:04:43 01:09:01 72° 288° (WNW) 01:13:17 145.935-145.965
DUCHIFAT 1 17 Jan 01:09:20 01:13:38 83° 286° (WNW) 01:17:54 145.980
NO-84 17 Jan 01:20:49 01:23:15 25° 215° (SW) 01:25:46 435.350 FM
ITUPSAT 1 17 Jan 01:23:20 01:26:31 18° 53° (NE) 01:29:42 437.325
VELOX 1 17 Jan 01:23:44 01:27:22 25° 267° (W) 01:31:01 145.980
AIST 2D 17 Jan 01:38:20 01:39:08 11° 304° (NW) 01:39:55 435.315
POLYITAN 1 17 Jan 01:38:43 01:42:41 37° 295° (WNW) 01:46:39 437.675
ISS 17 Jan 01:42:19 01:45:34 66° 176° (S) 01:48:49 437.550
nSIGHT-1 17 Jan 01:47:30 01:50:41 67° 180° (S) 01:53:51 .
O/OREOS (USA 219) 17 Jan 01:49:43 01:54:03 47° 112° (ESE) 01:58:23 437.305
Gurwin Techsat 1B 17 Jan 01:50:01 01:54:54 35° 95° (E) 01:59:45 435.225
UKube-1 17 Jan 01:50:53 01:55:11 77° 255° (WSW) 01:59:31 .
DX 1 17 Jan 01:53:15 01:57:27 48° 260° (W) 02:01:40 434.975-435.025
50 SAT 17 Jan 01:58:50 02:01:40 32° 262° (W) 02:04:31 437.505
NANOSAT C BR1 17 Jan 01:58:57 02:02:37 28° 298° (WNW) 02:06:15 145.865
BEESAT 17 Jan 02:04:40 02:08:58 34° 62° (ENE) 02:13:17 436.000
YUBILEINY 17 Jan 02:07:48 02:15:31 32° 302° (WNW) 02:23:15 435.215
QB50P2 17 Jan 02:08:34 02:11:45 20° 301° (WNW) 02:14:54 145.880/145.840
AO-91 17 Jan 02:26:47 02:30:51 79° 284° (WNW) 02:35:23 145.960
CUBESAT XI-V 17 Jan 02:27:12 02:31:04 26° 60° (ENE) 02:34:57 437.345
BUGSAT 1 17 Jan 02:28:40 02:32:48 53° 291° (WNW) 02:36:56 437.445
MOZHAYETS 4 17 Jan 02:35:06 02:39:45 86° 74° (ENE) 02:44:26
Oscar 19 17 Jan 02:40:03 02:45:16 80° 288° (WNW) 02:50:26 437.125/150
EO-79 17 Jan 02:42:06 02:44:02 13° 307° (NW) 02:45:58 145.935-145.965
DUCHIFAT 1 17 Jan 02:46:21 02:48:38 14° 306° (NW) 02:50:54 145.980
ITUPSAT 1 17 Jan 02:58:55 03:03:43 89° 73° (ENE) 03:08:33 437.325
KKS-1 17 Jan 03:02:51 03:04:49 13° 51° (NE) 03:06:47 437.445
ISS 17 Jan 03:18:42 03:21:53 49° 196° (SSW) 03:25:04 437.550
nSIGHT-1 17 Jan 03:23:38 03:26:39 39° 200° (SSW) 03:29:39 .
AO-7 17 Jan 03:29:05 03:36:52 40° 97° (E) 03:44:35 .
O/OREOS (USA 219) 17 Jan 03:29:36 03:33:38 31° 313° (NW) 03:37:41 437.305
Gurwin Techsat 1B 17 Jan 03:29:56 03:35:00 45° 295° (WNW) 03:40:01 435.225
UKube-1 17 Jan 03:30:48 03:31:59 11° 275° (W) 03:33:08 .
STARS 17 Jan 03:32:34 03:33:38 11° 49° (NE) 03:34:41 437.465
ITAMSAT 1 17 Jan 03:36:48 03:41:08 26° 93° (E) 03:45:28 435.822/435.867
BEESAT 17 Jan 03:42:12 03:46:42 40° 262° (W) 03:51:13 436.000
AO-91 17 Jan 04:04:53 04:06:49 13° 304° (WNW) 04:08:49 145.960
